QPF
0.00 0.00 0.00 0.00 0.00 0.00 0.00 0.00 0.00 0.00 0.00 0.00 0.00 0.00 0.00 0.00 0.00 0.00 0.00 0.00 0.00 0.01 0.01 0.01 0.01 0.01 0.01 0.00 0.00 0.00 0.00 0.00 0.03 0.00 0.00 0.00 0.01 0.01 0.02 0.01 0.00 0.00 0.00
0.00 0.00 0.00 0.00 0.00 0.00 0.00 0.00 0.00 0.00 0.00 0.00 0.00 0.00 0.00 0.00 0.00 0.00 0.00 0.00 0.00 0.00 0.00 0.01 0.01 0.02 0.02 0.03 0.02 0.02 0.02 0.04 0.06 0.04 0.02 0.00 0.02 0.04 0.09 0.09 0.03 0.00 0.00
0.00 0.00 0.00 0.00 0.00 0.00 0.00 0.00 0.00 0.00 0.00 0.00 0.00 0.00 0.00 0.00 0.00 0.00 0.00 0.00 0.00 0.01 0.02 0.04 0.02 0.02 0.03 0.04 0.04 0.04 0.04 0.04 0.05 0.08 0.03 0.01 0.01 0.01 0.13 0.12 0.06 0.03 0.01
0.00 0.00 0.00 0.00 0.00 0.00 0.00 0.00 0.00 0.00 0.00 0.00 0.00 0.00 0.00 0.00 0.00 0.00 0.00 0.02 0.03 0.03 0.04 0.04 0.03 0.03 0.04 0.05 0.05 0.06 0.06 0.06 0.05 0.05 0.05 0.03 0.05 0.04 0.13 0.08 0.06 0.02 0.00
0.00 0.00 0.00 0.00 0.00 0.00 0.00 0.00 0.00 0.00 0.00 0.00 0.00 0.00 0.00 0.00 0.00 0.01 0.02 0.02 0.03 0.01 0.01 0.01 0.01 0.01 0.01 0.03 0.06 0.06 0.10 0.09 0.09 0.07 0.02 0.04 0.02 0.06 0.03 0.09 0.08 0.05 0.01
0.00 0.00 0.00 0.00 0.00 0.00 0.00 0.00 0.00 0.00 0.00 0.00 0.00 0.00 0.00 0.00 0.00 0.01 0.01 0.00 0.01 0.01 0.01 0.01 0.01 0.00 0.00 0.00 0.00 0.01 0.04 0.07 0.09 0.10 0.06 0.06 0.02 0.02 0.03 0.03 0.08 0.11 0.04
0.00 0.00 0.00 0.00 0.00 0.00 0.00 0.00 0.00 0.00 0.00 0.00 0.01 0.01 0.03 0.04 0.00 0.01 0.00 0.00 0.01 0.01 0.02 0.03 0.02 0.00 0.00 0.01 0.02 0.02 0.01 0.01 0.04 0.06 0.07 0.03 0.04 0.03 0.07 0.05 0.02 0.05 0.07
0.00 0.00 0.00 0.00 0.00 0.00 0.00 0.00 0.00 0.00 0.01 0.01 0.01 0.02 0.03 0.02 0.00 0.00 0.00 0.01 0.04 0.05 0.04 0.04 0.05 0.02 0.01 0.00 0.02 0.03 0.04 0.06 0.07 0.04 0.02 0.00 0.00 0.06 0.08 0.07 0.08 0.12 0.14
0.00 0.00 0.00 0.00 0.00 0.00 0.00 0.01 0.01 0.02 0.02 0.02 0.02 0.03 0.03 0.04 0.01 0.03 0.07 0.06 0.06 0.07 0.06 0.05 0.03 0.01 0.00 0.00 0.01 0.02 0.03 0.02 0.01 0.02 0.03 0.02 0.02 0.06 0.06 0.10 0.09 0.12 0.12
0.00 0.00 0.00 0.00 0.00 0.00 0.03 0.04 0.03 0.03 0.03 0.03 0.02 0.03 0.05 0.05 0.05 0.14 0.16 0.06 0.08 0.05 0.02 0.01 0.00 0.00 0.00 0.00 0.00 0.01 0.01 0.00 0.02 0.06 0.06 0.04 0.02 0.03 0.04 0.07 0.05 0.07 0.09
0.00 0.00 0.00 0.00 0.00 0.02 0.03 0.03 0.04 0.04 0.04 0.04 0.03 0.04 0.06 0.09 0.12 0.21 0.09 0.02 0.02 0.01 0.00 0.00 0.00 0.00 0.00 0.00 0.00 0.00 0.00 0.01 0.03 0.09 0.11 0.12 0.12 0.10 0.06 0.03 0.02 0.02 0.02
0.00 0.00 0.00 0.00 0.00 0.01 0.02 0.03 0.05 0.06 0.06 0.05 0.05 0.06 0.07 0.09 0.15 0.16 0.05 0.00 0.00 0.00 0.00 0.00 0.00 0.00 0.00 0.00 0.00 0.00 0.00 0.00 0.00 0.02 0.07 0.10 0.13 0.10 0.07 0.07 0.04 0.03 0.01
0.00 0.00 0.00 0.00 0.00 0.00 0.03 0.06 0.07 0.06 0.05 0.03 0.01 0.04 0.06 0.10 0.13 0.14 0.04 0.00 0.00 0.00 0.00 0.00 0.00 0.00 0.00 0.00 0.00 0.00 0.00 0.00 0.00 0.00 0.00 0.01 0.05 0.08 0.14 0.11 0.09 0.07 0.05
0.00 0.00 0.00 0.00 0.00 0.01 0.05 0.07 0.05 0.02 0.01 0.01 0.03 0.04 0.05 0.06 0.07 0.06 0.02 0.00 0.00 0.00 0.00 0.00 0.00 0.00 0.02 0.03 0.01 0.01 0.01 0.00 0.00 0.00 0.00 0.01 0.05 0.11 0.11 0.09 0.08 0.08 0.08
0.00 0.00 0.00 0.00 0.01 0.01 0.02 0.02 0.01 0.02 0.04 0.01 0.01 0.01 0.01 0.00 0.01 0.00 0.00 0.00 0.00 0.00 0.00 0.00 0.01 0.05 0.11 0.04 0.01 0.02 0.03 0.03 0.01 0.00 0.00 0.01 0.06 0.10 0.10 0.10 0.08 0.07 0.05
0.00 0.00 0.00 0.00 0.01 0.02 0.05 0.02 0.02 0.02 0.00 0.00 0.00 0.00 0.00 0.00 0.00 0.00 0.00 0.00 0.00 0.00 0.00 0.01 0.04 0.12 0.07 0.01 0.00 0.01 0.03 0.06 0.06 0.05 0.02 0.02 0.04 0.04 0.05 0.07 0.06 0.07 0.05
0.00 0.00 0.00 0.00 0.01 0.03 0.06 0.03 0.05 0.06 0.01 0.00 0.00 0.00 0.00 0.00 0.00 0.00 0.00 0.00 0.01 0.01 0.00 0.02 0.07 0.11 0.09 0.01 0.00 0.01 0.01 0.05 0.08 0.07 0.05 0.05 0.05 0.05 0.05 0.05 0.05 0.06 0.06
0.00 0.00 0.01 0.00 0.01 0.01 0.00 0.05 0.09 0.10 0.02 0.00 0.01 0.01 0.01 0.01 0.00 0.01 0.01 0.00 0.05 0.02 0.00 0.00 0.01 0.04 0.08 0.05 0.02 0.01 0.00 0.04 0.09 0.13 0.13 0.11 0.10 0.10 0.10 0.07 0.08 0.04 0.03
0.00 0.02 0.00 0.00 0.01 0.00 0.00 0.05 0.09 0.09 0.00 0.00 0.01 0.00 0.00 0.01 0.04 0.08 0.11 0.08 0.10 0.06 0.02 0.02 0.02 0.04 0.07 0.08 0.04 0.02 0.01 0.03 0.03 0.03 0.11 0.15 0.17 0.17 0.12 0.11 0.07 0.04 0.03
0.00 0.00 0.00 0.00 0.00 0.00 0.00 0.00 0.02 0.01 0.00 0.00 0.00 0.00 0.00 0.00 0.01 0.04 0.11 0.12 0.05 0.03 0.02 0.07 0.10 0.06 0.08 0.10 0.06 0.05 0.05 0.04 0.03 0.01 0.01 0.02 0.04 0.07 0.07 0.07 0.04 0.03 0.02
0.00 0.00 0.00 0.00 0.00 0.00 0.00 0.00 0.00 0.00 0.00 0.00 0.00 0.00 0.00 0.00 0.00 0.00 0.02 0.03 0.02 0.01 0.03 0.05 0.04 0.03 0.04 0.05 0.07 0.05 0.05 0.03 0.05 0.05 0.01 0.00 0.00 0.00 0.00 0.00 0.00 0.00 0.00
0.00 0.00 0.00 0.00 0.00 0.00 0.00 0.00 0.00 0.00 0.00 0.00 0.00 0.00 0.00 0.00 0.00 0.00 0.00 0.00 0.00 0.00 0.00 0.00 0.00 0.01 0.01 0.00 0.00 0.01 0.01 0.01 0.01 0.02 0.02 0.01 0.01 0.00 0.00 0.00 0.00 0.00 0.00
0.00 0.00 0.00 0.00 0.00 0.00 0.00 0.00 0.00 0.00 0.00 0.00 0.00 0.00 0.00 0.00 0.00 0.00 0.00 0.00 0.00 0.00 0.00 0.00 0.00 0.00 0.00 0.00 0.00 0.00 0.00 0.00 0.00 0.01 0.03 0.00 0.00 0.00 0.00 0.00 0.00 0.00 0.00
0.00 0.00 0.00 0.00 0.00 0.00 0.00 0.00 0.00 0.00 0.00 0.00 0.00 0.00 0.00 0.00 0.00 0.00 0.01 0.00 0.00 0.00 0.00 0.00 0.00 0.00 0.00 0.00 0.00 0.00 0.00 0.00 0.00 0.00 0.02 0.01 0.00 0.00 0.00 0.00 0.00 0.00 0.00
0.00 0.00 0.00 0.00 0.00 0.00 0.00 0.00 0.00 0.00 0.00 0.00 0.00 0.00 0.00 0.00 0.00 0.00 0.00 0.00 0.00 0.00 0.00 0.00 0.00 0.00 0.00 0.00 0.00 0.00 0.00 0.00 0.00 0.00 0.00 0.01 0.00 0.00 0.00 0.00 0.00 0.00 0.00
0.00 0.00 0.00 0.00 0.00 0.00 0.00 0.00 0.00 0.00 0.00 0.00 0.00 0.00 0.00 0.00 0.00 0.00 0.00 0.00 0.00 0.00 0.00 0.00 0.00 0.00 0.00 0.00 0.00 0.00 0.00 0.00 0.00 0.00 0.01 0.00 0.00 0.00 0.00 0.00 0.00 0.00 0.00
MSLP
1011.76 1012.23 1012.73 1013.04 1013.38 1013.91 1014.19 1014.31 1014.39 1014.43 1014.67 1014.74 1014.70 1014.48 1014.24 1013.90 1013.56 1013.19 1012.85 1012.59 1012.32 1012.00 1011.89 1011.74 1011.54 1011.35 1010.91 1010.35 1009.88 1009.11 1008.55 1008.27 1008.25 1007.83 1007.48 1007.01 1007.08 1007.75 1007.31 1006.91 1007.56 1007.54 1006.97
1011.61 1012.06 1012.61 1013.08 1013.41 1013.66 1013.89 1013.99 1014.12 1014.17 1014.27 1014.33 1014.17 1013.91 1013.67 1013.34 1012.94 1012.50 1012.05 1011.70 1011.39 1011.10 1010.83 1010.82 1010.55 1010.42 1010.26 1010.18 1009.97 1009.49 1008.98 1008.62 1008.74 1008.28 1007.98 1007.56 1007.15 1006.95 1007.22 1007.54 1007.22 1006.64 1006.08
1011.93 1012.38 1012.42 1012.77 1013.13 1013.34 1013.61 1013.77 1013.86 1013.91 1013.89 1013.77 1013.57 1013.27 1012.92 1012.52 1012.08 1011.72 1011.51 1011.01 1010.77 1010.48 1010.32 1010.49 1010.33 1010.06 1009.76 1009.61 1009.39 1009.23 1009.01 1008.87 1008.60 1008.55 1007.92 1007.40 1006.81 1006.04 1005.75 1006.14 1006.40 1006.49 1006.44
1012.35 1012.33 1012.67 1012.90 1013.11 1013.21 1013.32 1013.50 1013.54 1013.51 1013.42 1013.27 1012.98 1012.65 1012.29 1011.83 1011.38 1010.92 1010.57 1010.42 1010.17 1010.01 1009.98 1009.93 1009.79 1009.58 1009.29 1009.09 1009.00 1008.80 1008.65 1008.62 1008.34 1007.99 1007.52 1006.93 1006.54 1006.05 1006.34 1006.26 1006.07 1005.96 1005.90
1012.51 1012.51 1013.03 1013.14 1013.28 1013.30 1013.30 1013.29 1013.24 1013.19 1013.06 1012.91 1012.53 1012.07 1011.60 1011.18 1010.46 1010.14 1010.23 1009.87 1009.73 1009.59 1009.42 1009.17 1008.74 1008.53 1008.26 1008.29 1008.28 1008.03 1008.09 1008.06 1007.82 1007.36 1006.69 1006.32 1005.79 1005.81 1005.89 1005.78 1005.85 1005.45 1005.22
1012.89 1012.99 1013.13 1013.19 1013.23 1013.18 1012.99 1012.86 1012.73 1012.61 1012.58 1012.48 1012.05 1011.50 1010.99 1010.47 1010.06 1010.20 1010.21 1009.80 1009.46 1009.20 1008.78 1008.53 1008.33 1008.02 1007.53 1007.25 1007.15 1006.90 1006.82 1006.95 1006.95 1006.78 1006.15 1005.77 1005.27 1005.13 1005.05 1005.16 1005.47 1005.34 1004.98
1012.94 1013.04 1013.04 1013.03 1012.94 1012.78 1012.53 1012.24 1012.13 1012.03 1012.08 1011.88 1011.57 1011.24 1010.75 1010.44 1010.20 1010.00 1009.76 1009.46 1009.02 1008.67 1008.28 1008.01 1007.64 1006.80 1006.82 1006.70 1006.31 1006.18 1006.09 1005.94 1005.69 1005.57 1005.28 1004.86 1004.68 1004.47 1004.57 1004.48 1004.53 1004.50 1004.30
1013.11 1013.13 1013.15 1013.09 1012.88 1012.64 1012.38 1012.05 1011.78 1011.62 1011.51 1011.32 1011.03 1010.66 1010.21 1009.81 1009.63 1009.44 1009.16 1008.83 1008.30 1008.08 1007.65 1007.32 1007.15 1006.70 1006.45 1006.14 1006.04 1005.66 1005.15 1004.74 1004.61 1004.38 1004.02 1003.69 1003.68 1003.63 1003.98 1003.92 1003.84 1003.97 1003.90
1013.25 1013.33 1013.33 1013.14 1012.85 1012.51 1012.18 1011.95 1011.97 1011.64 1011.21 1010.88 1010.50 1010.03 1009.64 1009.38 1009.27 1009.10 1008.96 1008.32 1007.84 1007.19 1006.79 1006.53 1006.22 1005.91 1005.55 1005.60 1005.69 1005.55 1004.94 1004.17 1003.72 1003.17 1002.78 1002.69 1002.68 1002.83 1003.01 1003.43 1003.38 1003.47 1002.88
1013.77 1013.65 1013.43 1013.17 1012.77 1012.38 1012.10 1011.97 1011.76 1011.39 1010.87 1010.49 1010.08 1009.71 1009.32 1008.85 1008.57 1008.42 1008.39 1007.89 1007.13 1006.47 1006.00 1005.11 1004.81 1005.00 1005.22 1005.38 1005.57 1005.41 1004.74 1004.02 1003.65 1002.72 1001.83 1001.40 1001.46 1001.54 1001.69 1002.17 1002.31 1002.35 1001.93
1013.89 1013.58 1013.30 1012.95 1012.68 1012.23 1011.67 1011.40 1011.19 1010.83 1010.51 1010.09 1009.74 1009.13 1008.80 1008.41 1008.00 1007.69 1007.45 1007.25 1006.42 1005.65 1004.99 1004.62 1004.50 1004.73 1004.99 1005.02 1005.12 1004.94 1004.14 1003.39 1003.04 1002.31 1001.24 1000.59 1000.38 1000.13 1000.15 1000.52 1000.75 1000.95 1000.52
1014.34 1013.89 1013.49 1013.02 1012.51 1011.81 1011.44 1011.00 1010.84 1010.53 1010.16 1009.80 1009.21 1008.47 1007.84 1007.64 1007.42 1007.10 1006.96 1006.99 1006.65 1006.38 1005.70 1004.91 1004.71 1004.46 1004.34 1004.30 1004.18 1003.33 1002.81 1002.29 1001.68 1001.04 1000.46 999.44 999.15 998.88 998.81 999.13 999.34 999.56 999.40
1014.72 1014.17 1013.65 1013.07 1012.36 1011.67 1011.11 1010.83 1010.54 1010.04 1009.52 1008.94 1008.50 1008.19 1008.06 1007.72 1007.10 1006.70 1006.75 1006.53 1006.37 1006.38 1005.32 1004.68 1004.31 1003.95 1003.64 1003.18 1002.46 1001.98 1001.20 1000.43 999.96 999.42 999.03 998.58 997.85 997.80 997.73 998.09 998.38 998.57 998.79
1014.68 1014.28 1013.31 1012.28 1011.59 1011.11 1010.67 1010.22 1009.92 1009.33 1009.21 1009.38 1009.11 1009.01 1008.52 1007.84 1007.33 1006.77 1006.47 1006.53 1005.63 1005.31 1004.44 1003.58 1003.63 1003.38 1002.89 1002.90 1002.19 1001.08 999.67 998.73 998.24 997.96 997.91 997.84 997.48 997.32 997.33 997.32 997.60 997.86 998.09
1014.95 1014.02 1012.84 1012.08 1011.60 1010.85 1010.17 1010.25 1009.62 1009.14 1009.54 1009.52 1009.53 1009.46 1008.95 1008.14 1007.69 1007.51 1007.36 1006.72 1005.99 1005.41 1005.27 1003.74 1002.75 1001.93 1001.84 1001.86 1001.38 1000.15 998.76 997.35 996.94 996.90 996.91 996.90 996.60 996.60 996.53 996.71 996.93 997.24 997.47
1015.11 1014.05 1013.43 1012.76 1011.52 1010.62 1010.20 1009.80 1008.85 1009.12 1009.42 1009.38 1009.34 1009.51 1008.87 1008.43 1007.51 1007.17 1006.69 1006.23 1006.02 1005.81 1004.82 1003.04 1002.14 1001.75 1001.83 1001.74 1001.08 999.93 998.84 997.31 995.85 995.95 995.93 995.84 995.73 995.82 995.81 996.16 996.44 996.79 996.90
1015.20 1014.62 1013.96 1012.80 1011.96 1010.95 1010.49 1009.71 1009.31 1008.91 1009.17 1009.26 1009.10 1008.84 1008.65 1008.40 1007.46 1006.71 1006.03 1005.30 1004.95 1004.99 1004.08 1002.25 1001.52 1001.39 1001.42 1001.47 1001.25 1000.34 999.29 997.90 996.47 995.40 995.44 995.38 995.30 995.29 995.43 995.71 995.97 996.37 996.40
1015.37 1014.66 1013.83 1012.94 1012.25 1011.70 1010.98 1010.30 1009.97 1009.50 1009.52 1009.30 1009.32 1009.34 1008.64 1007.92 1007.13 1006.39 1005.59 1004.92 1004.36 1004.09 1002.99 1001.68 1000.98 1001.15 1001.24 1001.00 1000.74 1000.21 999.50 998.67 997.62 996.58 995.46 994.99 994.84 994.79 994.95 995.24 995.51 995.56 995.61
1015.51 1014.78 1014.01 1013.25 1012.61 1012.02 1011.30 1010.62 1010.83 1010.45 1010.47 1009.98 1009.79 1009.37 1008.81 1007.85 1007.13 1006.38 1005.71 1005.29 1004.60 1003.91 1002.45 1002.23 1001.84 1001.41 1001.34 1001.01 1000.53 1000.05 999.53 999.31 998.65 997.89 996.70 995.96 995.12 994.94 994.98 995.15 995.43 995.72 995.90
1015.62 1015.11 1014.80 1014.02 1013.39 1013.11 1012.38 1011.89 1011.51 1011.25 1011.05 1010.73 1010.55 1010.43 1009.65 1008.45 1007.83 1007.19 1006.90 1006.31 1005.38 1004.67 1003.89 1002.86 1002.24 1001.93 1001.62 1001.25 1000.96 1000.31 999.59 999.59 999.34 998.92 998.24 997.68 996.73 996.79 996.80 996.70 996.46 996.53 996.72
1015.62 1014.96 1015.01 1014.44 1014.11 1013.84 1013.33 1012.95 1012.54 1012.30 1012.23 1011.67 1011.28 1011.21 1010.78 1009.77 1009.08 1008.40 1007.90 1007.26 1006.57 1005.57 1004.30 1003.54 1002.91 1002.73 1002.41 1002.00 1001.71 1001.23 1000.52 999.97 999.98 999.71 998.90 998.26 997.63 997.64 998.26 998.83 998.19 997.52 997.69
1014.68 1015.05 1015.02 1014.84 1014.60 1014.31 1014.14 1013.93 1013.81 1013.46 1013.07 1012.66 1012.36 1011.72 1011.00 1010.29 1009.92 1009.34 1008.70 1008.15 1007.52 1006.60 1005.56 1005.07 1004.45 1004.32 1004.16 1003.82 1003.21 1002.59 1002.30 1001.64 1000.89 999.88 999.56 999.12 998.83 998.76 998.88 998.84 998.46 998.44 998.33
1013.90 1013.85 1013.80 1014.06 1014.38 1014.66 1014.61 1014.65 1014.72 1014.40 1014.15 1013.49 1012.96 1012.50 1011.97 1011.31 1010.78 1010.27 1009.43 1008.76 1008.17 1007.67 1006.77 1006.13 1005.67 1005.39 1005.35 1005.00 1004.84 1004.32 1003.97 1003.47 1002.79 1001.55 1000.71 999.12 998.54 997.96 998.52 998.55 998.32 998.80 998.84
1013.99 1013.96 1013.65 1013.54 1013.83 1014.07 1014.63 1014.86 1015.09 1014.95 1014.77 1014.37 1014.00 1013.67 1013.16 1012.79 1012.06 1011.62 1010.63 1009.99 1009.29 1008.47 1007.81 1007.41 1007.01 1006.89 1006.50 1006.37 1006.21 1005.94 1005.73 1005.45 1004.13 1002.45 1001.30 999.94 998.96 998.46 998.24 998.12 998.14 998.12 998.24
1014.24 1014.21 1013.88 1013.72 1013.75 1013.96 1014.41 1014.01 1013.94 1014.62 1014.79 1014.73 1014.39 1014.24 1013.92 1013.59 1013.08 1012.48 1012.06 1010.72 1010.06 1009.20 1008.71 1008.38 1008.34 1007.88 1007.76 1007.56 1007.51 1007.15 1006.70 1005.69 1004.29 1003.23 1001.40 999.82 999.46 999.04 998.89 998.16 998.26 997.99 998.07
1014.62 1014.59 1014.36 1014.07 1013.88 1013.73 1013.33 1013.37 1013.44 1013.15 1013.28 1013.81 1014.42 1014.22 1013.81 1013.72 1013.25 1012.57 1011.82 1011.12 1010.51 1009.96 1009.48 1009.40 1009.54 1008.97 1009.24 1009.02 1009.04 1008.23 1007.21 1006.18 1004.89 1003.39 1001.98 1000.71 999.94 999.80 999.77 999.33 998.66 998.57 997.95
Thickness
5797 5792 5785 5781 5777 5770 5764 5760 5756 5753 5748 5744 5741 5738 5736 5736 5736 5735 5735 5734 5732 5734 5734 5732 5732 5734 5736 5741 5745 5750 5754 5755 5747 5762 5765 5771 5771 5761 5772 5778 5773 5778 5784
5790 5784 5777 5771 5766 5760 5756 5752 5749 5744 5741 5735 5733 5731 5729 5728 5728 5726 5725 5725 5724 5724 5725 5723 5725 5727 5726 5728 5729 5732 5737 5743 5735 5739 5747 5752 5755 5763 5763 5760 5769 5777 5782
5780 5773 5770 5764 5757 5752 5747 5744 5740 5735 5731 5728 5723 5721 5719 5718 5717 5717 5714 5715 5713 5713 5714 5708 5708 5712 5714 5717 5718 5719 5724 5726 5729 5728 5734 5744 5750 5758 5761 5763 5765 5768 5771
5771 5767 5759 5754 5749 5745 5740 5734 5730 5726 5721 5715 5712 5709 5707 5706 5705 5705 5703 5700 5699 5698 5698 5697 5698 5700 5701 5704 5705 5708 5712 5711 5716 5719 5726 5733 5738 5748 5744 5749 5751 5760 5763
5759 5757 5749 5744 5740 5734 5729 5724 5719 5714 5708 5702 5699 5697 5694 5691 5690 5686 5681 5680 5680 5681 5683 5684 5689 5693 5695 5696 5696 5701 5700 5701 5704 5710 5720 5724 5732 5733 5734 5743 5742 5751 5759
5747 5742 5738 5733 5728 5723 5719 5714 5710 5704 5697 5691 5687 5685 5681 5679 5677 5669 5664 5664 5665 5664 5666 5669 5673 5679 5686 5689 5691 5697 5699 5697 5698 5700 5711 5713 5724 5728 5734 5736 5734 5735 5741
5736 5731 5727 5722 5716 5713 5709 5706 5700 5693 5686 5680 5676 5671 5668 5665 5660 5656 5652 5651 5650 5651 5652 5655 5660 5672 5676 5679 5685 5686 5691 5693 5698 5700 5705 5713 5718 5726 5727 5727 5731 5734 5741
5723 5719 5714 5708 5703 5700 5696 5692 5688 5683 5676 5671 5667 5664 5660 5657 5651 5647 5645 5643 5643 5640 5643 5647 5650 5658 5663 5668 5671 5675 5683 5690 5694 5699 5705 5716 5717 5723 5719 5724 5726 5726 5734
5711 5705 5700 5696 5691 5687 5683 5679 5673 5669 5666 5661 5658 5656 5652 5648 5643 5639 5634 5637 5636 5638 5641 5644 5648 5652 5658 5658 5659 5659 5666 5678 5686 5693 5701 5709 5712 5713 5716 5716 5716 5717 5728
5694 5690 5686 5682 5679 5676 5672 5666 5663 5659 5656 5653 5650 5647 5643 5640 5638 5633 5629 5631 5632 5636 5639 5647 5650 5649 5646 5644 5643 5644 5649 5660 5664 5677 5692 5702 5706 5711 5713 5713 5717 5713 5727
5683 5680 5677 5674 5669 5666 5664 5662 5657 5653 5649 5645 5642 5641 5635 5632 5631 5629 5627 5628 5632 5637 5641 5642 5643 5638 5636 5634 5630 5632 5640 5648 5653 5663 5679 5692 5700 5708 5714 5716 5721 5721 5730
5669 5666 5663 5661 5659 5659 5657 5655 5650 5645 5641 5637 5635 5634 5633 5627 5624 5625 5622 5619 5622 5622 5624 5631 5631 5629 5628 5627 5626 5630 5632 5638 5650 5659 5668 5684 5693 5702 5712 5716 5721 5724 5735
5652 5649 5648 5648 5648 5650 5648 5645 5641 5640 5637 5636 5632 5625 5618 5614 5618 5620 5616 5616 5614 5614 5621 5624 5624 5624 5625 5629 5631 5632 5636 5643 5652 5660 5668 5680 5694 5701 5708 5710 5716 5722 5725
5639 5636 5641 5645 5645 5645 5644 5642 5637 5637 5631 5624 5618 5611 5606 5605 5607 5612 5614 5611 5616 5615 5620 5626 5623 5623 5625 5623 5626 5634 5644 5652 5658 5663 5669 5678 5687 5693 5697 5704 5706 5710 5712
5627 5631 5637 5639 5637 5639 5639 5632 5633 5632 5621 5617 5610 5601 5597 5598 5601 5600 5598 5603 5606 5608 5606 5620 5627 5630 5626 5624 5626 5631 5644 5658 5663 5667 5671 5676 5683 5688 5693 5699 5703 5705 5706
5617 5623 5623 5623 5630 5633 5630 5629 5633 5621 5614 5608 5600 5594 5595 5592 5595 5596 5596 5598 5598 5598 5611 5624 5626 5624 5619 5616 5620 5629 5638 5652 5666 5667 5671 5676 5682 5685 5690 5694 5697 5698 5703
5608 5608 5609 5614 5617 5621 5620 5621 5617 5618 5609 5605 5598 5595 5590 5589 5594 5598 5601 5605 5607 5606 5618 5628 5630 5626 5620 5615 5615 5623 5631 5644 5656 5667 5670 5674 5679 5683 5686 5689 5692 5693 5700
5598 5598 5602 5605 5606 5606 5608 5609 5607 5606 5601 5601 5595 5588 5589 5592 5595 5601 5605 5609 5620 5616 5625 5632 5633 5628 5623 5619 5619 5620 5626 5633 5642 5652 5664 5672 5677 5681 5684 5686 5689 5695 5701
5586 5589 5591 5593 5594 5594 5597 5600 5592 5592 5587 5590 5587 5585 5585 5590 5594 5601 5604 5610 5614 5616 5627 5623 5623 5625 5622 5620 5619 5622 5624 5621 5628 5637 5646 5656 5668 5673 5677 5682 5685 5685 5690
5575 5574 5571 5574 5575 5573 5578 5579 5580 5578 5577 5577 5576 5573 5575 5584 5587 5592 5592 5596 5603 5605 5609 5616 5618 5619 5619 5618 5614 5617 5622 5620 5620 5625 5627 5633 5650 5653 5656 5661 5667 5670 5673
5564 5565 5559 5560 5559 5558 5560 5561 5563 5562 5559 5564 5565 5561 5559 5568 5570 5574 5579 5584 5589 5595 5604 5608 5611 5610 5610 5611 5611 5613 5616 5620 5618 5616 5621 5630 5640 5641 5638 5636 5645 5657 5658
5564 5556 5551 5548 5546 5546 5544 5544 5542 5544 5546 5548 5550 5553 5554 5561 5561 5564 5568 5572 5577 5583 5590 5592 5596 5596 5595 5596 5598 5602 5603 5608 5610 5618 5619 5622 5625 5628 5628 5628 5634 5640 5644
5564 5561 5556 5548 5539 5531 5528 5526 5523 5526 5527 5534 5539 5542 5544 5549 5551 5553 5558 5562 5566 5570 5576 5580 5583 5584 5584 5585 5585 5587 5587 5590 5594 5604 5609 5622 5627 5633 5626 5628 5633 5631 5632
5558 5553 5550 5544 5534 5527 5517 5512 5507 5509 5514 5519 5520 5526 5529 5530 5535 5536 5543 5546 5552 5559 5564 5566 5567 5567 5571 5572 5570 5571 5571 5572 5581 5595 5602 5612 5624 5629 5630 5630 5631 5632 5634
5551 5544 5541 5534 5525 5516 5505 5508 5510 5504 5503 5507 5511 5514 5517 5518 5521 5524 5527 5538 5543 5550 5554 5554 5553 5555 5556 5558 5558 5560 5563 5570 5579 5587 5603 5614 5613 5617 5621 5630 5629 5631 5631
5543 5537 5532 5526 5518 5511 5508 5505 5507 5514 5515 5510 5506 5509 5513 5513 5516 5521 5526 5530 5536 5540 5543 5542 5540 5543 5540 5540 5540 5547 5555 5563 5572 5583 5592 5603 5606 5607 5609 5613 5620 5619 5627